When you browse on this site, cookies collect data to enhance your experience and personalize the content and advertising you see.
Visit our Privacy Policy to learn more. By continuing to use the site, you agree to this use of cookies and data.
  • In Czech Republic
  • List of Countries
  • For 7 days
  • Water Temperature
  • Satellite Maps
  • Weather Map
  • Weather Widgets
  • user-avatar
    Login

    Hourly Weather Shaki

    Today, 24 June, Monday

    Time Temperature Precipitation Wind Pressure Humidity
    00:00 +28°C° 0 mm 2 mps 734 mmHg 49%
    01:00 +28°C° 0 mm 2 mps 734 mmHg 49%
    02:00 +27°C° 0 mm 1 mps 734 mmHg 49%
    03:00 +27°C° 0 mm 1 mps 734 mmHg 47%
    04:00 +27°C° 0 mm 1 mps 734 mmHg 49%
    05:00 +28°C° 0 mm 1 mps 734 mmHg 51%
    06:00 +28°C° 0 mm 1 mps 734 mmHg 52%
    07:00 +30°C° 0 mm 1 mps 734 mmHg 48%
    08:00 +31°C° 0 mm 2 mps 734 mmHg 44%
    09:00 +33°C° 0 mm 1 mps 734 mmHg 39%
    10:00 +36°C° 0.2 mm 2 mps 734 mmHg 36%
    11:00 +37°C° 0.2 mm 3 mps 734 mmHg 34%
    12:00 +38°C° 0.2 mm 4 mps 734 mmHg 31%
    13:00 +40°C° 0 mm 4 mps 733 mmHg 29%
    14:00 +41°C° 0 mm 5 mps 733 mmHg 26%
    15:00 +41°C° 0 mm 6 mps 733 mmHg 24%
    16:00 +40°C° 0 mm 6 mps 733 mmHg 25%
    17:00 +40°C° 0 mm 5 mps 733 mmHg 26%
    18:00 +38°C° 0 mm 4 mps 733 mmHg 27%
    19:00 +36°C° 0 mm 4 mps 734 mmHg 28%
    20:00 +33°C° 0 mm 3 mps 734 mmHg 30%
    21:00 +30°C° 0 mm 2 mps 734 mmHg 31%
    22:00 +29°C° 0 mm 2 mps 734 mmHg 31%
    23:00 +29°C° 0 mm 2 mps 734 mmHg 30%

    Tomorrow, 25 June, Tuesday

    Time Temperature Precipitation Wind Pressure Humidity
    00:00 +28°C° 0 mm 1 mps 734 mmHg 30%
    01:00 +28°C° 0 mm 1 mps 734 mmHg 31%
    02:00 +27°C° 0 mm 1 mps 734 mmHg 32%
    03:00 +27°C° 0 mm 1 mps 734 mmHg 33%
    04:00 +28°C° 0 mm 1 mps 734 mmHg 36%
    05:00 +28°C° 0 mm 1 mps 734 mmHg 38%
    06:00 +29°C° 0 mm 1 mps 734 mmHg 41%
    07:00 +31°C° 0 mm 1 mps 734 mmHg 36%
    08:00 +33°C° 0 mm 1 mps 735 mmHg 31%
    09:00 +35°C° 0 mm 1 mps 735 mmHg 25%
    10:00 +37°C° 0 mm 2 mps 735 mmHg 23%
    11:00 +38°C° 0 mm 3 mps 735 mmHg 20%
    12:00 +40°C° 0 mm 3 mps 734 mmHg 18%
    13:00 +40°C° 0 mm 3 mps 734 mmHg 17%
    14:00 +42°C° 0 mm 3 mps 735 mmHg 16%
    15:00 +42°C° 0 mm 3 mps 735 mmHg 15%
    16:00 +40°C° 0 mm 3 mps 734 mmHg 17%
    17:00 +41°C° 0 mm 4 mps 734 mmHg 19%
    18:00 +40°C° 0 mm 4 mps 734 mmHg 21%
    19:00 +36°C° 0 mm 3 mps 734 mmHg 23%
    20:00 +34°C° 0 mm 3 mps 735 mmHg 24%
    21:00 +30°C° 0 mm 2 mps 735 mmHg 26%
    22:00 +30°C° 0 mm 2 mps 735 mmHg 26%
    23:00 +29°C° 0 mm 2 mps 735 mmHg 27%

    Day after tomorrow, 26 June, Wednesday

    Time Temperature Precipitation Wind Pressure Humidity
    00:00 +28°C° 0 mm 2 mps 734 mmHg 28%
    01:00 +28°C° 0 mm 2 mps 735 mmHg 29%
    02:00 +27°C° 0 mm 1 mps 735 mmHg 29%
    03:00 +27°C° 0 mm 1 mps 735 mmHg 30%
    04:00 +28°C° 0 mm 1 mps 735 mmHg 31%
    05:00 +29°C° 0 mm 1 mps 735 mmHg 32%
    06:00 +30°C° 0 mm 1 mps 735 mmHg 33%
    07:00 +31°C° 0 mm 1 mps 735 mmHg 31%
    08:00 +34°C° 0 mm 2 mps 735 mmHg 28%
    09:00 +35°C° 0 mm 2 mps 735 mmHg 25%
    10:00 +36°C° 0 mm 3 mps 735 mmHg 24%
    11:00 +37°C° 0 mm 3 mps 735 mmHg 22%
    12:00 +38°C° 0 mm 3 mps 735 mmHg 21%
    13:00 +39°C° 0 mm 3 mps 735 mmHg 20%
    14:00 +41°C° 0 mm 4 mps 735 mmHg 19%
    15:00 +41°C° 0 mm 4 mps 734 mmHg 18%
    16:00 +40°C° 0 mm 4 mps 734 mmHg 21%
    17:00 +38°C° 0 mm 4 mps 734 mmHg 24%
    18:00 +37°C° 0 mm 4 mps 734 mmHg 28%
    19:00 +35°C° 0 mm 4 mps 734 mmHg 34%
    20:00 +33°C° 0 mm 4 mps 734 mmHg 40%
    21:00 +30°C° 0 mm 4 mps 735 mmHg 47%
    22:00 +29°C° 0.1 mm 4 mps 734 mmHg 51%
    23:00 +28°C° 0.1 mm 3 mps 734 mmHg 56%

    27 June, Thursday

    Time Temperature Precipitation Wind Pressure Humidity
    00:00 +27°C° 0.1 mm 3 mps 734 mmHg 60%
    01:00 +26°C° 0.5 mm 3 mps 734 mmHg 63%
    02:00 +26°C° 0.5 mm 2 mps 734 mmHg 66%
    03:00 +25°C° 0.5 mm 2 mps 734 mmHg 69%
    04:00 +26°C° 0.1 mm 2 mps 734 mmHg 67%
    05:00 +26°C° 0.1 mm 2 mps 734 mmHg 65%
    06:00 +27°C° 0.1 mm 2 mps 734 mmHg 63%
    07:00 +28°C° 0 mm 3 mps 734 mmHg 58%
    08:00 +29°C° 0 mm 3 mps 734 mmHg 53%
    09:00 +30°C° 0 mm 4 mps 734 mmHg 48%
    10:00 +33°C° 0 mm 4 mps 734 mmHg 45%
    11:00 +34°C° 0 mm 4 mps 733 mmHg 41%
    12:00 +35°C° 0 mm 4 mps 733 mmHg 38%
    13:00 +35°C° 0.1 mm 4 mps 733 mmHg 38%
    14:00 +35°C° 0.1 mm 5 mps 732 mmHg 38%
    15:00 +35°C° 0.1 mm 5 mps 732 mmHg 38%
    16:00 +34°C° 0 mm 5 mps 732 mmHg 39%
    17:00 +34°C° 0 mm 5 mps 732 mmHg 40%
    18:00 +33°C° 0 mm 4 mps 731 mmHg 41%
    19:00 +30°C° 0 mm 4 mps 732 mmHg 43%
    20:00 +29°C° 0 mm 4 mps 732 mmHg 45%
    21:00 +27°C° 0 mm 4 mps 732 mmHg 46%
    22:00 +26°C° 0 mm 4 mps 731 mmHg 48%
    23:00 +25°C° 0 mm 3 mps 731 mmHg 49%

    28 June, Friday

    Time Temperature Precipitation Wind Pressure Humidity
    00:00 +24°C° 0 mm 3 mps 731 mmHg 50%
    01:00 +24°C° 0 mm 2 mps 730 mmHg 51%
    02:00 +24°C° 0 mm 2 mps 730 mmHg 52%
    03:00 +24°C° 0 mm 2 mps 730 mmHg 52%
    04:00 +24°C° 0 mm 1 mps 730 mmHg 51%
    05:00 +25°C° 0 mm 1 mps 730 mmHg 50%
    06:00 +25°C° 0 mm 1 mps 729 mmHg 50%
    07:00 +27°C° 0 mm 1 mps 729 mmHg 47%
    08:00 +28°C° 0 mm 2 mps 729 mmHg 44%
    09:00 +29°C° 0 mm 2 mps 729 mmHg 42%
    10:00 +30°C° 0.1 mm 2 mps 728 mmHg 40%
    11:00 +31°C° 0.1 mm 2 mps 728 mmHg 38%
    12:00 +32°C° 0.1 mm 2 mps 727 mmHg 36%
    13:00 +32°C° 0.1 mm 2 mps 727 mmHg 35%
    14:00 +34°C° 0.1 mm 2 mps 726 mmHg 34%
    15:00 +34°C° 0.1 mm 2 mps 726 mmHg 32%
    16:00 +34°C° 0 mm 2 mps 726 mmHg 34%
    17:00 +33°C° 0 mm 3 mps 726 mmHg 35%
    18:00 +33°C° 0 mm 3 mps 726 mmHg 36%
    19:00 +30°C° 0 mm 3 mps 727 mmHg 41%
    20:00 +29°C° 0 mm 2 mps 727 mmHg 45%
    21:00 +27°C° 0 mm 2 mps 727 mmHg 49%
    22:00 +27°C° 0 mm 2 mps 727 mmHg 50%
    23:00 +27°C° 0 mm 1 mps 727 mmHg 52%

    29 June, Saturday

    Time Temperature Precipitation Wind Pressure Humidity
    00:00 +27°C° 0 mm 1 mps 727 mmHg 53%
    01:00 +26°C° 0 mm 1 mps 727 mmHg 56%
    02:00 +26°C° 0 mm 1 mps 727 mmHg 59%
    03:00 +25°C° 0 mm 1 mps 726 mmHg 61%
    04:00 +26°C° 0 mm 1 mps 727 mmHg 61%
    05:00 +26°C° 0 mm 1 mps 727 mmHg 60%
    06:00 +27°C° 0 mm 1 mps 727 mmHg 59%
    07:00 +28°C° 0 mm 1 mps 727 mmHg 54%
    08:00 +30°C° 0 mm 2 mps 727 mmHg 48%
    09:00 +31°C° 0 mm 2 mps 726 mmHg 43%
    10:00 +34°C° 0 mm 2 mps 726 mmHg 40%
    11:00 +35°C° 0 mm 2 mps 726 mmHg 37%
    12:00 +36°C° 0 mm 3 mps 726 mmHg 34%
    13:00 +36°C° 0.1 mm 3 mps 726 mmHg 33%
    14:00 +37°C° 0.1 mm 3 mps 725 mmHg 32%
    15:00 +37°C° 0.1 mm 3 mps 725 mmHg 31%
    16:00 +36°C° 0.1 mm 3 mps 725 mmHg 34%
    17:00 +36°C° 0.1 mm 3 mps 725 mmHg 36%
    18:00 +35°C° 0.1 mm 2 mps 725 mmHg 38%
    19:00 +32°C° 0.7 mm 2 mps 726 mmHg 46%
    20:00 +29°C° 0.7 mm 2 mps 726 mmHg 55%
    21:00 +27°C° 0.7 mm 2 mps 727 mmHg 63%
    22:00 +26°C° 0.5 mm 2 mps 727 mmHg 67%
    23:00 +25°C° 0.5 mm 1 mps 727 mmHg 71%
    Show more